Location: Lancaster
(34.6980°N, 118.1360°W)
Time: 17:04:27
(UTC-08:00)

Tiangong 2 - Pass Details

Date: 10 November 2017
Orbit: 386 x 391 km, 42.8° (Epoch: 20 November)

Event Time Altitude Azimuth Distance (km) Brightness Sun altitude
Rises 18:40:37 0° 298° (WNW) 2,271 5.9 -22.8°
Reaches altitude 10° 18:42:42 10° 298° (WNW) 1,413 4.7 -23.2°
Enters shadow 18:44:33 32° 298° (WNW) 695 2.8 -23.6°
